Weather History for North Adams, MA

Change the Weather History Date:

Saturday, May 3, 2014

  Actual Average Record
Temperature  
Mean Temperature 52 °F -  
Max Temperature 64 °F 63 °F 87 °F (2001)
Min Temperature 39 °F 39 °F 30 °F (2000)
Degree Days  
Heating Degree Days 14    
Growing Degree Days 2 (Base 50)    
Moisture  
Dew Point 40 °F    
Average Humidity 67    
Maximum Humidity 93    
Minimum Humidity 35    
Precipitation  
Precipitation 0.01 in - - ()
Sea Level Pressure  
Sea Level Pressure 29.79 in    
Wind  
Wind Speed 2 mph (SW)    
Max Wind Speed 13 mph    
Max Gust Speed 17 mph    
Visibility 10 miles    
Events      
Averages and records for this station are not official NWS values.
T = Trace of Precipitation, MM = Missing Value Source: NWS Daily Summary

Daily Weather History Graph

Daily Weather History Graph

Search for Another Location

Airport:

Trip Planner

Search our weather history database for the weather conditions in past years. The results will help you decide how hot, cold, wet, or windy it might be!

Date:

Astronomy

May. 03, 2014 Rise Set
Actual Time 5:44 AM EDT 7:55 PM EDT
Civil Twilight 5:13 AM EDT 8:26 PM EDT
Nautical Twilight 4:35 AM EDT 9:04 PM EDT
Astronomical Twilight 3:53 AM EDT 9:47 PM EDT
Moon 9:10 AM EDT (5/3) No Moon Set
Length of Visible Light 15h 12m
Length of Day
14h 10m
Waxing Crescent, 19% of the Moon is Illuminated
May 3
Waxing Crescent
May 6
First Quarter
May 14
Full
May 21
Last Quarter
May 28
New

Hourly Weather History & Observations

Time (EDT) Temp. Dew Point Humidity Pressure Visibility Wind Dir Wind Speed Gust Speed Precip Events Conditions
12:52 AM 39.9 °F 37.9 °F 93% 29.84 in 10.0 mi Calm Calm - N/A   Mostly Cloudy
1:52 AM 42.1 °F 39.0 °F 89% 29.84 in 10.0 mi Calm Calm - N/A   Overcast
2:52 AM 44.1 °F 41.0 °F 89% 29.84 in 10.0 mi Calm Calm - 0.00 in   Overcast
4:52 AM 45.0 °F 42.1 °F 90% 29.85 in 10.0 mi Calm Calm - N/A   Overcast
5:52 AM 45.0 °F 42.1 °F 90% 29.86 in 10.0 mi Calm Calm - N/A   Overcast
6:52 AM 46.0 °F 42.1 °F 86% 29.87 in 10.0 mi Calm Calm - N/A   Overcast
7:52 AM 46.9 °F 42.1 °F 83% 29.87 in 10.0 mi Calm Calm - N/A   Overcast
8:52 AM 48.9 °F 42.1 °F 77% 29.87 in 10.0 mi Calm Calm - N/A   Overcast
9:52 AM 51.1 °F 41.0 °F 68% 29.86 in 10.0 mi ESE 4.6 mph - N/A   Overcast
10:52 AM 55.9 °F 41.0 °F 57% 29.83 in 10.0 mi ESE 3.5 mph - N/A   Overcast
11:52 AM 59.0 °F 39.0 °F 48% 29.80 in 10.0 mi Variable 3.5 mph - N/A   Scattered Clouds
12:52 PM 60.1 °F 37.9 °F 44% 29.78 in 10.0 mi Variable 4.6 mph - N/A   Overcast
1:52 PM 62.1 °F 36.0 °F 38% 29.76 in 10.0 mi SW 6.9 mph - N/A   Overcast
2:52 PM 63.0 °F 35.1 °F 35% 29.74 in 10.0 mi West 9.2 mph - N/A   Overcast
3:52 PM 63.0 °F 35.1 °F 35% 29.72 in 10.0 mi Variable 3.5 mph 16.1 mph N/A   Overcast
4:52 PM 64.0 °F 36.0 °F 35% 29.71 in 10.0 mi West 12.7 mph 17.3 mph N/A   Mostly Cloudy
5:52 PM 63.0 °F 35.1 °F 35% 29.70 in 10.0 mi West 9.2 mph - N/A   Mostly Cloudy
6:52 PM 60.1 °F 37.0 °F 42% 29.71 in 10.0 mi WNW 8.1 mph - N/A   Overcast
7:52 PM 57.9 °F 39.0 °F 49% 29.74 in 10.0 mi SW 9.2 mph - N/A   Overcast
8:52 PM 48.9 °F 45.0 °F 86% 29.74 in 10.0 mi Calm Calm - 0.01 in   Scattered Clouds
9:52 PM 48.0 °F 44.1 °F 86% 29.75 in 10.0 mi Calm Calm - N/A   Overcast
10:52 PM 46.9 °F 44.1 °F 90% 29.73 in 10.0 mi Calm Calm - N/A   Mostly Cloudy
11:52 PM 46.9 °F 43.0 °F 86% 29.70 in 10.0 mi East 3.5 mph - N/A   Mostly Cloudy